Wind_Speed
11 10 9 9 9 9 10 10 10 9 10 10 10 11 11 11 10 9 8 8 9 11 12 14 15 15 14 15 17 19 20 20 20 20 20 20 19 20 20 20 21 22 22 22 22 22 21 20 19 18 18 18 18 18 18 17 17 16 16 16 16 15 15 15 15 15 16 16 16 16 15 15 15 14 14 14 15 15 15 15 16 17 17 18 18
12 11 9 8 9 10 10 10 11 11 11 11 11 11 11 10 9 8 8 8 8 10 11 12 13 13 13 13 14 16 17 18 19 20 21 20 20 20 20 20 21 22 23 23 23 23 22 21 20 19 19 19 19 19 19 19 19 18 18 18 18 18 18 18 18 18 18 18 18 18 18 17 17 16 16 15 15 15 15 15 16 16 17 17 18
11 9 9 9 9 9 10 10 11 11 11 11 11 10 10 9 8 8 8 8 8 9 9 10 11 11 12 12 12 13 14 16 17 19 21 21 21 21 21 21 21 22 23 24 24 24 24 23 22 21 20 20 19 19 19 20 20 20 20 20 20 21 21 21 21 21 21 21 20 20 20 20 19 19 18 17 17 16 16 16 16 16 16 17 17
9 9 9 8 7 7 8 9 10 10 10 10 10 9 9 8 8 8 8 8 8 8 8 9 9 10 10 11 11 12 13 15 16 18 20 21 22 22 22 21 21 22 22 23 24 24 24 24 23 22 21 21 20 20 20 21 21 21 22 22 22 22 23 23 23 23 23 23 22 22 22 21 21 21 20 20 19 19 18 18 17 17 17 17 17
10 10 8 7 6 7 8 8 9 9 9 9 9 9 8 8 8 8 8 8 8 8 8 9 9 9 9 9 11 12 13 14 15 17 19 20 21 22 22 21 21 21 22 23 23 24 24 24 24 23 23 22 22 21 21 21 22 22 22 23 23 23 23 24 24 24 24 24 24 24 24 23 23 22 21 21 21 20 20 20 20 19 19 18 18
10 9 8 7 7 7 8 8 8 8 8 8 9 9 8 7 8 8 8 7 7 8 8 8 8 8 8 9 11 12 13 13 14 16 17 18 19 20 20 20 21 21 22 22 22 22 23 23 23 22 22 22 22 21 21 22 22 23 23 23 22 23 23 24 25 25 25 25 25 25 25 24 24 24 23 22 22 22 22 22 22 21 21 21 20
10 9 9 8 8 8 8 7 7 6 7 8 8 8 7 8 8 8 7 7 7 7 7 7 7 8 9 10 12 13 13 13 13 14 14 16 17 18 18 18 19 20 21 20 20 20 21 21 21 21 21 22 22 22 22 22 22 22 22 22 22 22 23 23 24 24 24 24 24 24 24 24 24 24 23 23 23 23 23 22 22 22 22 22 22
10 10 10 9 8 7 7 7 6 6 6 7 8 7 7 7 8 7 7 7 7 7 6 6 7 8 9 10 11 12 12 12 12 12 13 14 15 16 16 16 16 17 18 18 18 18 18 19 19 20 20 21 21 21 21 22 22 22 21 21 22 22 22 22 22 23 23 23 23 23 23 23 24 24 24 23 23 23 23 23 23 23 23 22 22
11 11 11 9 7 7 7 7 7 7 7 7 8 7 7 7 7 7 7 7 7 6 6 6 6 7 8 9 10 10 10 10 11 11 11 12 14 14 13 13 14 14 14 15 15 15 16 16 17 18 19 19 19 19 19 20 21 21 21 21 21 21 21 21 21 21 21 22 22 22 22 22 22 23 23 23 23 22 23 23 23 23 23 22 22
13 12 11 9 7 7 8 8 8 8 7 8 8 8 7 6 7 6 7 8 7 6 6 6 6 6 7 9 8 8 8 8 9 10 11 12 12 11 11 11 12 12 13 13 13 13 13 14 15 16 17 17 17 17 17 18 18 19 19 19 19 19 18 18 18 19 19 20 19 19 20 20 20 20 20 20 21 21 22 22 22 22 22 22 21
14 13 11 9 7 8 8 8 8 8 7 8 9 9 7 6 6 7 7 8 8 7 6 5 5 6 8 8 7 6 8 8 8 10 11 11 11 9 9 10 11 12 12 12 11 12 12 13 14 14 15 16 16 16 16 16 16 16 17 17 17 17 17 17 17 17 18 18 18 17 17 18 17 17 17 18 18 18 18 19 18 18 19 19 19
15 13 12 10 9 9 9 9 8 8 8 9 10 9 7 7 7 7 7 8 8 8 7 6 5 7 7 7 6 6 7 7 8 10 9 9 8 7 8 10 10 10 10 11 11 11 11 11 12 12 14 14 15 16 16 16 16 16 17 17 17 17 17 17 17 17 17 16 16 16 15 15 15 14 14 15 15 15 15 15 15 15 15 15 16
15 14 12 11 10 10 10 9 9 9 9 9 10 9 8 8 7 7 7 8 8 8 7 7 6 7 7 5 5 5 5 6 7 7 7 6 6 6 7 8 9 9 10 11 11 11 11 11 12 12 13 13 14 14 15 15 15 16 16 16 16 16 16 16 16 16 15 15 14 13 12 12 12 12 12 12 12 12 12 13 13 13 13 13 13
15 14 12 11 11 11 11 11 10 10 10 10 10 10 9 9 8 7 7 8 8 8 8 7 7 7 6 4 5 5 4 4 6 6 6 6 6 7 8 7 8 8 8 9 10 10 10 12 12 12 11 11 12 12 13 14 14 14 15 15 15 15 15 15 15 14 14 13 12 11 11 11 11 11 11 11 12 12 12 13 13 13 13 13 13
16 15 14 13 12 12 12 12 11 10 10 11 11 11 10 9 8 7 7 8 8 8 8 8 8 8 7 5 5 5 4 4 5 6 6 6 6 7 8 7 7 7 6 7 8 9 9 10 11 10 10 10 10 10 11 12 13 13 14 14 14 14 14 14 14 14 13 12 12 11 12 12 12 12 12 12 13 13 13 14 14 14 14 14 15
17 16 15 14 14 13 13 13 12 11 11 11 12 12 11 10 8 7 8 8 8 8 8 7 7 8 7 6 6 6 5 5 6 7 6 6 7 8 8 8 7 7 7 7 9 9 9 9 10 10 9 9 9 9 10 11 11 12 13 13 14 13 14 14 14 14 14 13 13 13 14 14 14 15 14 14 15 15 15 15 16 16 16 16 16
19 18 17 16 15 15 14 14 13 12 11 12 12 12 11 10 8 8 8 8 8 7 7 7 7 7 7 7 6 6 5 5 7 7 7 7 7 8 8 8 8 9 9 9 10 10 10 10 11 11 10 9 9 10 10 11 11 12 12 13 13 14 14 14 15 15 15 16 16 17 17 17 17 17 17 17 17 17 17 17 17 17 18 18 17
20 19 18 17 16 16 15 14 13 12 12 12 12 12 11 10 9 8 8 8 7 7 7 6 6 7 7 7 7 6 6 6 7 8 8 8 8 8 8 8 9 10 10 11 11 10 11 11 12 11 11 10 10 10 11 12 12 12 13 13 14 14 15 15 16 16 17 18 19 19 19 19 19 19 19 19 18 18 18 18 19 19 19 19 19
21 19 18 18 17 16 15 14 13 13 12 13 12 12 12 11 10 9 9 8 8 7 6 6 6 6 7 7 7 7 7 7 8 9 9 9 9 9 9 10 10 11 11 11 12 11 11 12 12 12 11 11 11 12 13 14 14 14 14 14 15 15 16 16 17 17 18 18 19 19 19 20 20 20 20 20 20 19 19 19 19 19 19 19 19
21 20 19 19 18 17 16 14 13 13 13 13 12 12 12 11 11 10 10 10 9 8 8 7 7 7 7 7 7 7 7 7 8 9 9 9 10 10 10 11 11 11 11 12 11 11 12 13 13 13 13 13 14 15 16 16 16 16 16 16 17 17 17 18 18 18 18 18 19 19 19 19 19 20 20 20 20 19 19 19 19 18 18 18 18
21 20 20 20 20 18 16 15 13 13 13 12 12 12 12 12 12 11 11 11 11 11 10 10 10 9 9 9 8 7 8 8 8 9 9 10 11 11 11 11 12 12 13 13 13 13 14 14 14 14 15 15 16 17 17 18 18 17 17 18 18 19 19 19 19 19 18 19 19 19 19 19 19 19 19 18 18 18 18 17 17 16 16 16 16
21 20 20 21 21 19 17 16 14 14 13 12 12 12 12 13 13 12 12 12 12 12 12 12 12 12 12 12 11 10 10 10 10 10 10 11 12 12 13 13 13 14 14 15 16 15 15 16 16 15 15 16 16 17 18 18 18 18 18 19 19 20 19 19 19 18 18 18 18 18 17 17 17 17 16 16 16 16 16 15 15 15 15 14 14
21 20 20 21 21 20 18 17 16 15 14 13 13 13 13 14 14 14 14 13 13 13 13 13 13 14 14 14 13 13 13 12 12 12 12 12 12 13 13 14 14 15 16 16 16 16 16 16 16 16 16 17 17 17 18 18 18 19 19 19 19 19 19 19 18 18 17 17 16 16 15 15 14 14 14 14 14 14 14 14 14 14 14 14 13
21 21 21 21 21 20 20 18 17 16 15 14 14 13 14 14 15 16 16 15 15 15 15 15 14 14 14 14 14 13 14 13 13 13 13 13 13 13 13 14 15 16 16 16 16 16 17 17 17 17 17 17 17 17 17 17 18 18 19 19 19 18 18 18 18 17 17 16 15 14 13 13 13 13 13 13 14 14 14 14 14 14 15 14 14
21 21 21 21 21 21 20 19 18 17 16 15 14 13 13 13 14 15 16 16 16 15 15 14 14 14 14 15 14 14 14 14 14 14 14 14 14 13 13 14 15 16 16 16 16 16 17 17 17 17 16 16 16 16 17 17 18 18 18 18 18 17 17 17 16 16 16 15 14 13 13 13 13 13 13 13 14 14 14 15 15 15 15 15 14
21 21 20 21 22 22 21 19 18 17 16 15 14 12 11 11 12 13 14 15 14 13 13 13 13 13 14 14 14 14 14 14 15 15 15 14 14 13 13 14 15 16 17 16 16 16 17 16 16 16 16 16 16 16 17 17 17 17 17 17 16 16 16 16 16 15 14 14 13 13 13 13 13 13 13 14 15 15 15 16 16 16 16 15 15
21 21 20 21 22 22 20 19 18 17 16 15 13 11 10 10 11 12 13 13 12 11 11 12 12 12 12 12 13 13 13 14 15 15 15 14 13 12 12 13 14 15 16 16 16 16 16 16 16 16 17 16 16 16 16 16 17 16 16 15 15 15 15 15 15 14 13 13 13 13 13 13 14 14 14 15 16 16 16 17 17 17 17 16 16
21 21 21 21 21 21 20 19 18 17 15 14 13 11 10 10 11 11 12 12 12 12 12 12 12 11 11 11 11 12 12 13 14 14 13 13 12 12 12 13 13 14 15 15 15 15 15 15 15 16 16 16 16 15 16 15 15 15 14 15 15 15 15 14 14 14 14 14 13 13 14 14 15 15 15 16 16 16 17 17 17 17 17 17 17
20 21 21 21 21 21 20 19 18 17 15 14 13 11 10 11 11 10 11 11 12 12 12 12 12 12 12 11 11 12 13 13 14 13 13 12 11 12 12 12 13 14 15 15 15 15 14 14 15 15 15 15 15 15 15 15 14 14 14 14 14 14 14 14 15 15 15 15 15 15 15 15 16 16 16 16 16 16 17 17 17 17 17 17 17
19 20 21 22 21 20 19 20 19 17 16 15 14 12 11 11 11 10 10 10 11 12 12 12 12 12 12 12 12 13 14 14 14 13 13 12 12 11 12 12 13 14 14 14 14 14 14 14 14 14 14 14 14 14 14 14 14 13 13 14 14 15 15 15 15 16 16 16 16 16 16 17 17 17 17 17 17 17 17 17 17 18 18 18 18
17 19 21 21 20 19 19 19 19 18 16 16 15 13 12 12 12 11 10 9 10 10 11 11 11 11 12 12 13 14 15 15 15 14 14 13 12 12 12 12 12 13 13 13 13 12 13 13 13 13 13 13 13 13 13 13 13 13 14 14 14 15 16 16 16 16 17 17 17 18 18 18 18 18 18 19 19 19 19 19 19 18 19 19 19
17 19 20 21 20 19 19 19 19 18 17 17 16 14 13 13 14 13 11 10 10 10 11 11 11 12 12 13 14 15 15 15 15 15 15 15 14 14 14 13 13 13 13 13 13 13 13 13 13 13 13 14 14 14 14 14 14 14 14 14 15 16 16 16 16 17 17 17 18 18 18 18 18 19 19 19 20 20 21 21 21 21 20 20 20
19 20 21 21 21 20 20 19 19 19 18 18 17 16 15 15 15 15 14 13 12 13 13 13 13 13 13 13 14 15 15 16 16 16 16 16 16 16 16 16 16 15 15 15 15 14 15 15 16 15 15 16 16 16 15 15 15 15 15 14 15 15 16 17 17 17 18 18 18 18 19 19 19 20 20 21 21 22 22 23 23 23 23 23 22
19 20 21 21 21 21 20 20 20 20 20 19 19 18 17 17 17 17 17 16 15 15 15 15 15 15 15 15 15 16 16 17 16 16 16 16 17 17 18 18 18 17 17 17 17 17 17 17 18 18 18 18 17 17 17 17 16 15 15 15 16 16 16 17 18 18 18 19 19 20 20 20 21 21 22 22 23 23 24 25 25 26 26 26 26
16 17 19 19 20 20 20 20 21 21 22 21 21 20 19 19 20 20 19 18 17 17 16 17 17 17 17 17 17 18 18 18 17 16 16 16 17 18 18 19 18 18 18 19 18 18 18 19 19 19 18 18 18 18 18 17 17 16 16 16 16 16 17 17 18 18 18 19 20 20 20 20 21 21 21 22 23 24 24 25 26 27 27 28 29
14 14 16 16 17 17 18 19 21 21 22 22 22 22 21 21 21 22 22 21 20 19 19 19 19 19 19 19 19 19 19 19 18 17 17 17 18 18 19 19 19 19 19 20 19 19 19 19 19 18 18 17 17 17 18 18 18 17 17 16 16 16 16 17 18 18 19 19 20 20 20 20 20 20 21 22 23 24 25 26 27 28 28 29 30
14 14 15 15 16 17 18 20 21 22 22 22 23 23 23 23 23 23 23 22 22 22 22 22 22 21 20 20 20 20 20 20 19 18 18 18 19 19 19 19 19 19 19 20 20 20 19 19 18 18 18 18 18 19 19 20 20 19 19 18 17 17 17 17 17 18 19 19 19 20 20 20 20 21 22 23 24 25 26 27 28 29 30 31 32
18 18 18 18 19 20 21 22 23 23 23 23 24 24 24 24 24 24 24 24 24 24 24 24 23 22 21 20 20 20 21 20 20 20 19 19 20 20 20 20 20 20 20 20 20 20 20 20 20 20 20 21 21 22 22 22 22 22 20 19 18 17 17 17 17 18 19 19 20 21 22 23 24 25 25 26 27 28 28 29 30 32 32 33 34
22 21 20 20 19 20 21 23 23 23 23 23 24 25 25 25 24 24 24 24 25 25 24 24 23 23 22 21 21 21 21 21 21 21 20 21 21 21 21 21 21 20 20 21 21 22 22 22 23 24 24 24 25 25 25 24 24 24 22 20 19 18 17 16 16 17 18 20 21 23 25 26 28 29 30 30 31 31 32 33 34 35 36 36 36
24 24 23 22 20 20 20 21 22 22 22 22 22 23 24 24 23 23 23 24 25 25 24 23 23 23 22 22 22 22 22 22 22 22 22 22 22 22 22 22 22 22 22 23 24 25 26 26 27 27 27 27 27 27 26 26 25 24 23 21 20 19 18 18 17 18 19 21 22 24 26 29 31 33 34 35 35 35 35 36 36 37 38 38 38
23 25 25 24 22 21 20 20 20 21 21 21 21 21 22 23 23 23 23 23 22 22 22 22 23 23 23 23 23 23 23 23 23 24 24 24 24 23 23 24 24 25 26 27 28 29 29 29 29 29 28 27 27 27 27 26 25 24 24 24 23 23 22 22 22 22 23 24 25 26 28 30 33 34 35 37 38 38 37 37 37 37 37 38 40
23 25 27 26 22 21 20 20 20 20 20 21 21 22 22 23 24 23 22 21 21 21 21 22 22 23 23 23 24 24 24 24 25 25 25 25 25 26 26 27 27 28 29 30 31 31 30 29 28 28 27 27 27 27 27 27 26 26 27 27 28 28 28 28 27 27 27 28 29 30 31 33 35 35 35 37 38 39 39 38 37 36 36 39 41
21 21 23 25 24 22 21 20 20 20 20 21 22 23 24 25 25 23 21 21 22 22 22 22 22 22 23 23 24 24 25 25 26 26 27 28 28 28 29 29 29 30 30 31 31 30 29 29 28 28 27 27 28 29 29 29 30 31 30 30 30 31 31 32 31 31 31 33 33 34 36 37 38 37 36 37 39 39 39 38 36 36 37 39 41
21 19 19 22 24 24 22 20 20 21 22 21 22 24 25 26 26 25 23 23 24 24 24 23 23 23 23 24 25 26 27 28 29 30 30 31 31 31 31 31 31 31 31 31 31 30 30 30 29 29 29 30 30 31 32 33 34 34 32 31 31 33 33 33 32 33 34 36 36 36 38 40 40 38 37 38 39 39 38 38 38 37 38 39 41
21 21 21 23 25 25 23 21 21 23 24 24 24 25 26 27 27 27 27 27 27 27 27 26 26 25 25 26 28 29 30 31 32 32 33 33 33 33 33 33 32 32 32 32 32 32 33 32 32 31 31 31 32 33 34 35 35 33 32 32 33 34 34 33 33 34 36 37 37 38 40 41 40 38 37 38 39 39 39 40 40 40 40 40 40
20 22 22 24 25 26 24 22 22 23 25 26 27 27 27 28 28 29 29 29 29 30 30 30 30 29 29 29 31 32 33 34 34 35 35 36 36 35 35 34 34 34 35 35 35 35 35 35 35 35 34 33 33 33 33 34 34 33 33 34 36 36 35 35 36 37 38 38 38 40 41 41 40 40 39 41 42 41 41 42 43 44 44 43 42
21 22 23 23 25 26 25 23 23 25 26 28 29 30 31 31 31 31 31 31 31 31 32 33 33 33 33 32 33 34 36 37 37 37 38 38 37 37 36 36 37 37 37 37 37 37 37 37 38 38 37 36 36 35 35 35 35 35 35 36 36 36 36 38 39 41 41 40 40 41 41 41 41 42 43 45 46 46 45 46 46 47 47 47 45
23 24 24 24 26 27 27 26 26 26 27 29 30 32 33 35 35 35 34 33 32 33 34 34 35 35 35 35 36 37 38 38 39 39 39 39 40 40 40 40 41 41 41 41 41 41 41 41 41 40 40 39 40 40 40 40 40 40 40 39 38 39 40 42 44 44 43 41 41 42 43 42 43 45 47 48 50 50 50 50 50 49 49 50 48
26 26 27 28 28 29 30 30 30 30 30 31 32 33 35 36 37 37 36 34 34 34 35 36 36 36 37 37 38 39 39 40 41 42 42 42 43 43 44 44 44 45 45 45 45 45 45 45 45 44 43 43 43 43 44 44 45 46 46 46 45 45 45 45 45 44 43 42 43 44 45 45 46 48 49 50 52 53 54 54 54 52 50 49 48
28 28 30 31 32 32 33 33 33 33 33 34 35 36 37 37 38 38 38 37 36 36 38 39 40 40 40 40 41 41 42 44 45 46 46 47 47 47 47 47 47 47 47 48 48 48 49 49 49 48 48 48 48 48 48 48 48 49 50 50 49 48 48 47 47 47 48 49 49 48 48 49 50 51 51 51 53 55 57 58 57 55 52 50 50
31 31 32 34 34 35 35 35 35 36 36 36 37 38 38 39 39 40 40 40 41 41 41 42 43 44 44 44 45 46 47 48 49 50 51 51 51 51 52 52 51 51 51 51 52 52 53 53 52 52 53 53 53 53 52 52 53 53 53 53 52 52 52 53 53 54 54 54 53 51 51 52 54 55 55 55 56 58 59 58 56 55 54 53 54
Wind_Direction
275 277 275 269 267 271 275 274 272 273 272 270 272 273 273 274 275 277 276 269 261 255 253 256 261 264 264 262 257 253 252 254 256 257 257 255 255 255 252 249 246 245 244 245 246 248 249 249 250 252 255 258 263 267 270 273 275 275 276 276 277 277 277 277 276 277 276 276 276 276 275 275 275 275 275 275 275 274 273 272 272 271 271 270 269
279 277 272 266 268 272 269 265 265 267 268 269 270 270 272 275 279 280 277 269 261 256 255 257 262 265 265 263 259 255 254 255 256 256 256 255 252 252 251 249 248 247 246 246 246 246 247 248 249 250 253 256 260 264 268 271 273 273 274 275 275 275 275 275 275 276 277 278 279 280 280 281 282 282 281 281 280 279 277 275 274 274 273 273 272
276 272 270 271 272 269 263 260 262 263 265 266 266 267 269 273 277 278 274 269 262 258 257 259 264 268 268 267 262 256 254 254 255 255 255 254 251 250 249 249 249 249 248 248 248 248 248 248 248 250 251 254 257 261 264 267 270 271 273 274 274 275 275 275 276 276 277 279 281 282 283 284 285 285 285 285 285 285 283 281 279 277 275 274 273
266 268 269 268 264 259 254 255 257 259 260 260 261 262 264 269 273 274 272 270 267 266 265 266 269 272 273 270 265 258 254 254 255 256 254 252 250 250 250 249 249 248 249 250 250 249 249 249 249 250 251 253 256 258 261 264 267 269 270 271 272 274 274 275 276 277 278 280 281 283 284 284 285 285 286 287 288 289 288 286 284 282 280 277 274
261 262 255 247 247 249 249 251 253 255 256 255 254 255 260 267 270 271 272 272 272 269 268 271 273 275 276 274 268 260 254 254 256 256 254 251 249 249 250 250 251 250 249 249 250 250 250 251 251 252 253 254 256 258 261 263 264 265 266 267 270 271 273 274 275 276 277 278 280 282 284 286 287 288 288 288 288 288 288 288 288 287 285 283 280
253 244 236 239 245 246 246 248 251 254 254 252 251 255 261 265 266 269 273 273 270 266 266 270 274 278 280 277 270 262 258 256 256 257 253 249 248 249 250 251 252 253 252 250 250 250 250 252 253 255 256 257 258 260 261 262 262 262 263 265 267 269 270 272 273 274 275 277 278 281 284 287 288 289 289 288 288 287 287 287 288 289 288 287 285
238 234 239 245 245 242 242 243 246 249 249 249 249 253 256 260 265 268 269 266 262 263 267 272 278 287 289 282 274 267 263 261 263 262 252 245 247 250 251 253 255 255 253 252 252 252 252 253 256 258 260 261 261 261 262 262 262 262 263 265 266 268 270 272 274 275 276 277 278 280 282 284 286 286 287 287 286 286 287 288 289 290 290 289 288
231 239 245 245 242 242 243 243 242 240 240 244 245 247 252 259 264 265 261 259 263 270 276 280 287 295 293 287 279 271 265 264 267 264 250 242 246 250 251 254 257 255 254 254 255 255 254 256 259 262 264 263 263 263 263 263 262 263 263 265 267 270 272 274 275 276 276 277 277 278 280 281 282 283 284 284 285 286 288 290 291 292 291 290 290
234 242 244 242 240 244 247 244 240 238 237 242 247 252 258 263 267 266 264 266 272 279 283 285 289 291 290 293 292 281 268 262 263 259 247 243 248 251 249 249 253 256 257 258 257 257 257 260 263 266 267 267 266 265 265 265 264 264 264 265 267 270 272 274 275 276 276 276 277 277 278 279 281 282 282 282 284 286 289 291 292 292 291 290 289
235 240 241 239 237 243 248 244 239 238 239 246 253 257 261 265 271 274 274 274 277 278 280 284 282 279 286 300 308 293 267 256 256 255 248 247 250 248 244 244 251 257 260 260 260 260 262 265 267 269 270 269 269 268 267 267 267 266 266 268 268 270 272 274 275 275 274 274 276 276 277 279 281 283 283 283 284 286 288 290 291 292 291 290 288
234 237 239 237 235 240 244 244 242 239 241 248 254 258 260 263 269 273 276 276 277 277 277 281 276 277 289 305 316 293 261 252 252 253 251 251 251 246 245 249 254 258 259 260 263 266 269 269 268 269 271 271 271 270 269 267 267 268 269 270 270 270 272 273 276 277 275 273 273 274 276 279 281 283 284 285 285 285 287 289 292 293 294 291 288
231 234 235 233 233 238 242 245 248 245 245 247 251 257 259 259 263 268 274 276 277 278 281 282 277 280 290 306 319 294 261 257 261 259 254 249 252 253 253 254 257 259 261 263 265 268 270 270 266 267 270 272 271 270 268 267 268 270 272 273 272 273 273 274 276 277 276 274 273 275 278 281 282 283 284 285 284 285 287 290 294 299 301 298 292
229 231 231 229 232 238 243 247 251 251 251 251 254 257 257 257 259 262 269 273 276 280 285 286 280 281 288 302 312 298 275 264 262 258 247 240 246 253 255 256 258 262 266 270 271 270 268 269 272 273 273 274 273 271 269 267 269 272 274 275 276 276 276 276 277 278 277 275 274 277 280 283 285 286 286 284 283 284 287 292 298 304 308 307 301
229 229 229 229 233 238 244 246 250 253 255 256 259 260 260 260 258 257 259 264 270 275 283 287 284 282 284 287 289 294 292 264 249 249 253 255 255 254 257 261 261 264 271 277 277 273 269 271 276 279 280 279 277 273 271 271 273 277 279 279 279 279 280 281 282 283 282 278 275 276 279 281 284 286 285 286 286 288 291 296 301 304 306 307 306
227 228 229 231 234 239 243 246 249 252 256 258 261 264 264 261 257 253 253 255 261 268 277 285 285 282 283 280 277 281 282 265 262 270 275 277 271 265 266 269 272 271 275 281 280 276 274 274 276 279 280 278 275 275 274 275 278 281 284 285 286 286 288 290 290 290 290 285 280 280 281 282 282 283 283 285 288 290 292 295 298 300 301 301 301
227 228 231 232 234 237 241 244 246 249 253 256 259 262 263 262 258 253 251 253 257 263 272 279 281 281 284 283 279 277 275 269 276 282 282 277 272 272 274 279 284 284 284 283 280 277 276 276 276 274 273 272 273 278 280 280 281 284 287 290 292 295 297 299 298 296 296 292 287 284 284 284 285 286 286 287 288 289 291 293 295 295 295 295 296
230 231 232 233 234 235 238 240 242 244 247 250 253 255 258 259 257 251 248 250 253 258 263 270 275 278 284 286 285 282 277 270 271 277 280 277 274 276 279 285 289 287 285 281 278 277 276 277 280 279 278 280 282 285 286 286 287 288 290 291 293 296 298 299 298 297 295 292 290 288 287 287 287 287 288 289 289 290 291 293 294 294 293 293 292
234 234 234 234 235 236 237 239 240 241 242 244 246 248 251 254 254 249 246 246 247 249 252 258 266 273 281 285 286 285 280 269 265 271 277 278 277 276 277 282 285 284 282 281 282 285 285 285 286 286 285 286 286 286 285 284 283 284 285 287 291 294 296 297 297 296 294 293 291 290 290 289 289 288 289 289 290 291 293 293 294 294 293 292 291
238 239 239 239 238 237 238 239 240 240 239 240 241 243 247 250 250 248 245 244 244 246 248 251 256 263 271 275 279 281 280 272 267 270 274 275 275 275 276 277 278 279 280 281 282 285 287 286 286 286 284 283 283 284 284 284 284 285 287 290 293 295 297 298 299 298 297 296 295 294 293 292 292 291 291 291 291 291 292 292 292 292 291 291 290
242 242 243 242 239 237 236 237 238 238 238 238 238 240 244 247 249 249 246 245 245 246 249 252 254 256 261 268 272 275 278 278 276 276 275 273 273 274 276 277 276 277 279 280 281 283 283 281 280 283 284 285 286 287 289 289 290 292 295 298 300 301 302 303 304 303 302 301 300 298 297 296 295 294 293 292 292 291 291 291 291 291 291 290 289
244 244 244 242 239 235 232 232 232 234 235 235 236 238 243 247 250 251 250 250 248 248 248 250 253 255 258 264 269 273 277 279 279 278 275 273 273 274 275 275 275 274 273 275 279 282 282 278 278 281 284 287 289 290 291 291 292 294 298 302 305 306 307 306 305 304 303 302 302 302 301 301 300 299 298 297 296 296 295 295 295 295 294 293 291
245 243 241 241 239 234 229 227 228 230 232 234 236 239 245 249 252 254 253 253 251 250 249 248 250 253 256 260 265 270 274 276 278 279 279 278 276 275 275 275 276 276 275 274 277 281 283 283 285 286 288 291 293 294 293 292 293 294 298 302 306 307 306 305 304 303 303 303 304 304 305 305 305 305 304 304 303 303 302 302 301 301 300 299 297
243 240 240 242 241 235 228 226 227 230 233 236 240 245 249 253 256 256 254 254 253 252 252 251 251 251 253 256 260 267 271 272 275 277 277 276 274 275 276 277 278 278 278 279 282 284 286 287 288 291 293 294 295 295 295 294 294 294 297 300 302 304 303 303 303 304 304 304 305 306 306 308 309 309 310 310 311 311 310 310 309 309 308 308 307
239 238 242 245 243 236 229 227 228 231 235 240 246 251 255 258 260 259 257 255 254 254 254 254 255 254 254 254 255 261 265 266 269 272 271 270 271 273 275 277 278 279 280 282 284 285 286 286 288 291 295 296 295 294 293 293 294 295 296 298 299 299 299 300 301 302 303 304 305 306 307 309 311 313 315 317 319 319 319 318 317 317 317 316 317
243 243 243 244 243 236 230 229 230 233 237 242 248 254 259 262 263 262 259 256 255 255 256 257 257 256 254 253 252 253 257 260 264 266 265 264 265 268 273 277 280 283 283 284 283 283 285 286 289 292 296 297 295 293 292 292 294 296 297 298 298 297 297 297 298 299 300 301 303 305 307 309 311 314 316 318 319 319 319 319 318 318 317 317 317
248 248 242 238 239 235 231 230 231 235 240 243 247 252 260 266 266 262 258 255 254 255 255 254 253 252 251 251 250 250 252 256 259 260 260 260 260 262 268 273 277 280 280 280 281 282 282 285 287 289 292 296 297 294 293 294 296 298 299 299 298 297 297 297 297 297 297 298 300 302 303 305 307 309 311 312 312 313 313 314 314 314 313 313 312
250 249 244 238 236 234 231 231 234 240 244 245 248 255 265 270 267 261 255 252 251 251 251 251 250 248 248 248 249 250 250 252 255 257 258 258 258 259 263 267 270 272 273 275 276 277 279 281 283 284 287 291 293 294 295 297 299 301 302 300 297 296 296 296 296 295 296 297 298 299 300 302 304 306 307 308 309 310 311 312 312 312 312 310 308
251 250 247 242 238 234 231 233 237 244 248 249 252 259 271 274 267 260 257 255 255 254 254 255 255 253 252 251 253 255 255 256 258 261 261 260 260 259 261 263 264 266 269 273 274 275 277 280 281 284 287 291 293 296 298 300 302 304 301 298 295 295 295 294 294 294 295 297 297 298 300 302 304 305 307 308 308 309 309 309 310 309 309 307 306
251 251 249 246 241 235 232 233 238 245 250 253 255 262 273 277 272 265 262 261 261 260 259 260 261 262 262 262 262 263 264 265 266 268 269 268 266 264 265 264 264 266 270 273 274 276 279 282 285 288 291 295 297 299 301 303 304 302 298 296 295 295 295 295 296 297 298 299 298 299 301 303 304 305 305 305 305 306 306 306 306 306 305 304 302
248 249 249 248 243 238 234 234 240 246 250 253 256 261 271 275 272 267 265 264 264 262 261 262 264 266 269 269 268 268 268 270 272 274 275 275 274 273 271 269 269 271 273 275 278 281 284 287 291 294 296 298 300 301 302 303 303 301 298 297 298 298 299 300 302 303 303 303 303 304 306 307 307 307 307 306 305 305 304 304 303 302 301 300 298
244 246 249 249 246 241 237 236 242 248 252 254 255 257 264 270 268 265 264 264 265 265 264 266 269 273 275 273 270 269 269 271 273 275 276 277 279 279 279 278 279 280 282 284 287 290 291 294 297 301 303 303 302 301 302 301 301 299 297 297 298 299 301 303 305 305 305 306 307 309 310 310 309 309 308 306 305 303 302 300 298 296 295 294 293
240 242 246 249 249 247 243 240 244 250 254 257 256 255 257 262 263 262 263 264 265 266 266 269 273 276 278 276 273 271 271 272 273 275 276 277 279 281 283 284 285 285 288 290 294 296 298 301 306 308 305 302 300 299 299 297 296 294 293 294 296 298 300 302 303 304 306 307 308 309 309 308 307 306 304 304 303 302 301 300 297 294 291 289 287
239 241 244 248 249 249 248 247 249 254 258 261 261 258 257 259 260 259 259 259 260 260 262 264 267 271 274 274 274 273 272 273 273 273 275 277 278 279 281 282 283 285 288 291 294 298 301 304 305 303 298 296 295 294 293 291 290 290 291 292 295 298 301 303 305 306 307 307 306 306 305 304 303 303 303 303 303 302 302 301 299 296 293 289 285
242 243 245 246 246 247 248 249 252 256 259 261 262 260 259 260 260 259 257 256 257 259 260 262 264 266 268 269 270 271 269 269 268 269 272 275 277 278 278 279 280 283 285 288 291 295 297 297 296 294 291 291 290 289 288 287 286 288 291 294 296 299 302 303 304 305 304 303 302 301 301 300 300 301 301 301 301 301 301 300 299 297 294 291 287
243 242 244 245 245 246 246 248 251 254 257 259 259 259 258 259 260 260 260 259 260 262 263 265 265 265 267 268 268 269 267 265 265 265 268 271 274 276 276 276 278 280 282 285 287 289 290 289 288 287 287 286 286 285 285 284 285 288 291 293 295 296 298 298 298 298 297 296 296 296 296 295 296 296 297 298 299 299 299 298 297 296 294 292 289
238 237 239 241 243 244 244 245 247 250 253 256 258 257 256 257 258 261 262 263 265 266 268 269 268 267 268 267 268 269 268 266 265 264 265 267 269 271 272 273 274 276 278 280 282 282 282 282 281 281 281 281 281 282 283 284 285 286 287 288 289 290 291 291 291 292 292 293 293 293 292 292 292 293 295 296 297 298 298 297 297 296 294 293 290
233 232 235 239 243 245 246 247 247 247 249 253 256 258 257 256 257 259 262 264 267 269 270 271 269 268 268 268 269 268 267 265 263 263 264 266 267 268 269 270 270 272 273 274 275 275 275 274 273 273 273 274 275 277 279 280 280 280 280 280 281 281 283 285 288 290 292 293 292 291 290 290 291 292 294 296 297 297 298 297 297 297 295 294 293
237 239 242 245 249 252 252 252 251 250 249 252 255 258 259 258 257 258 261 264 267 269 269 269 269 267 267 267 266 266 265 264 263 263 264 265 266 267 267 267 267 268 268 268 268 268 267 266 266 267 268 270 272 274 274 274 274 274 273 273 273 275 278 282 286 289 290 291 291 291 291 291 292 294 295 296 297 298 297 297 297 297 296 295 294
240 243 245 249 254 256 256 254 253 252 249 250 253 256 258 259 259 261 264 267 269 268 268 269 268 267 266 265 264 264 263 263 262 263 263 264 265 265 265 265 266 266 266 266 265 264 265 266 267 268 270 272 273 273 273 272 270 269 269 268 268 271 275 279 283 286 288 289 289 290 291 292 292 293 294 295 296 297 297 297 297 297 297 296 295
244 246 248 252 256 257 259 257 255 252 250 250 253 255 256 257 260 264 269 270 270 268 267 268 268 268 267 265 263 263 262 261 261 261 262 264 264 265 265 266 267 268 268 267 267 268 269 270 271 272 274 275 275 274 272 270 268 267 267 267 269 271 273 275 278 282 284 285 285 286 288 289 290 290 291 292 293 294 295 296 296 296 295 294 294
248 250 250 254 256 255 257 258 256 253 251 251 253 253 253 256 261 267 270 270 269 267 266 267 267 267 267 266 265 263 262 261 260 261 262 263 264 265 266 268 269 271 271 272 273 274 275 275 275 275 276 276 275 274 272 270 268 269 269 270 271 273 275 275 276 278 279 281 282 284 287 290 290 289 289 290 291 292 293 293 293 293 292 291 291
255 254 250 250 251 251 252 256 257 254 251 248 247 248 250 255 261 265 267 267 265 263 262 262 263 264 265 266 265 263 262 261 261 261 262 263 264 266 267 270 271 273 274 274 274 274 274 274 273 273 273 273 273 272 270 269 269 270 272 273 273 274 276 277 277 278 280 283 285 286 290 294 295 293 290 288 289 291 291 291 292 292 291 291 293
257 256 246 240 242 245 248 252 256 256 251 246 245 247 250 253 256 258 259 260 258 256 256 256 257 259 262 264 264 263 262 260 260 260 261 263 265 267 269 271 272 273 273 272 271 270 268 267 268 269 270 271 270 269 268 267 268 270 272 274 275 276 278 279 280 280 282 285 287 288 291 296 298 296 293 290 290 290 290 289 290 291 292 294 296
253 255 244 235 235 240 244 251 258 260 253 246 245 249 252 255 255 255 255 255 252 251 250 250 252 254 257 259 260 259 258 257 257 257 259 262 264 267 269 270 270 269 269 267 265 264 263 264 266 269 271 271 270 268 267 267 268 271 273 275 275 276 277 278 280 281 283 285 286 288 292 295 297 297 296 295 294 291 288 287 287 289 292 296 297
253 256 251 242 237 237 241 251 262 263 255 247 244 246 251 255 258 258 257 254 251 248 246 246 247 248 250 252 254 254 255 256 257 259 260 262 265 267 268 268 268 268 267 266 264 264 265 265 267 269 271 270 269 267 266 266 268 270 271 273 274 276 275 275 278 281 283 285 286 289 292 294 295 296 296 296 296 292 288 285 285 286 289 294 296
258 260 259 252 244 239 242 253 262 263 256 249 245 245 249 254 258 262 262 259 254 250 248 247 247 247 247 247 249 251 253 254 256 258 261 263 265 266 267 268 268 269 269 268 268 268 268 268 269 270 271 271 270 268 267 267 267 268 269 272 275 275 274 275 278 281 282 283 285 289 292 291 291 292 294 295 295 293 290 286 285 285 286 289 293
258 261 261 256 246 242 247 256 261 261 256 251 250 251 254 257 260 263 263 261 257 253 250 249 250 250 250 249 249 250 251 252 254 256 258 260 261 262 262 263 264 265 266 267 267 267 267 268 269 269 269 271 271 270 270 270 269 270 272 275 276 276 274 274 276 278 279 280 284 288 290 289 287 288 291 293 294 293 291 289 289 289 287 285 288
257 256 254 250 245 246 252 258 258 256 254 253 254 256 259 261 263 263 262 261 259 257 255 254 253 253 254 253 253 252 253 255 256 258 259 260 260 261 261 262 263 264 265 266 266 266 267 267 267 268 270 271 271 272 272 272 273 273 275 276 278 279 278 275 275 276 277 278 282 287 288 287 286 286 288 290 291 290 290 290 291 292 290 286 286
254 252 251 250 251 254 258 260 259 257 254 253 255 257 259 261 262 261 260 260 261 261 260 259 258 257 257 257 256 257 257 259 260 262 263 264 264 265 265 266 267 268 269 269 269 270 270 271 271 273 273 273 272 272 273 273 273 273 274 274 276 278 278 275 275 276 276 279 283 285 286 286 287 287 287 287 288 288 289 290 291 292 291 287 286
255 254 254 255 257 259 261 261 261 260 258 257 257 258 258 259 259 258 258 258 261 263 263 263 261 261 261 261 262 262 263 263 264 264 265 265 266 266 266 267 268 269 269 270 271 271 272 273 274 275 275 274 274 273 273 273 272 272 273 273 273 273 273 274 275 276 278 282 283 282 283 285 287 287 286 286 287 288 289 291 292 292 290 287 287
258 257 257 258 259 260 261 261 261 261 260 260 260 260 260 259 259 259 258 259 261 263 264 264 263 263 264 265 266 267 267 266 267 267 267 267 268 269 269 269 270 270 270 270 270 271 271 272 273 274 274 275 275 275 275 274 274 274 274 273 272 272 272 272 273 275 277 280 279 278 281 284 285 286 287 288 287 288 289 291 291 291 289 286 288
Height
5821 5821 5822 5822 5822 5822 5822 5822 5821 5821 5820 5820 5820 5821 5821 5821 5822 5823 5823 5824 5825 5825 5825 5825 5825 5825 5825 5825 5825 5825 5825 5826 5827 5827 5827 5828 5829 5830 5831 5831 5832 5832 5833 5833 5834 5835 5835 5835 5836 5836 5836 5837 5837 5838 5838 5838 5839 5839 5839 5839 5839 5839 5839 5839 5839 5839 5839 5839 5839 5839 5840 5840 5840 5840 5840 5840 5840 5840 5840 5840 5840 5841 5841 5841 5841
5820 5820 5821 5821 5821 5821 5821 5820 5820 5820 5819 5819 5819 5819 5820 5820 5820 5821 5822 5822 5823 5823 5823 5823 5823 5823 5823 5823 5823 5823 5824 5824 5825 5825 5825 5826 5827 5827 5828 5829 5829 5830 5831 5831 5832 5833 5833 5834 5834 5834 5835 5835 5836 5836 5837 5837 5837 5837 5837 5838 5838 5838 5838 5838 5838 5837 5837 5837 5837 5838 5838 5838 5838 5838 5839 5839 5839 5839 5839 5839 5839 5839 5839 5839 5839
5818 5819 5819 5819 5820 5820 5819 5819 5819 5818 5818 5818 5818 5819 5819 5819 5820 5820 5820 5820 5821 5821 5821 5821 5821 5821 5821 5821 5821 5822 5822 5822 5823 5823 5823 5824 5824 5825 5825 5826 5827 5828 5829 5829 5830 5831 5832 5832 5833 5833 5833 5834 5834 5835 5835 5835 5835 5836 5836 5836 5836 5836 5836 5836 5836 5836 5836 5836 5836 5836 5836 5836 5837 5837 5837 5837 5837 5837 5837 5837 5837 5837 5837 5837 5837
5817 5817 5818 5818 5818 5818 5818 5818 5817 5817 5817 5817 5817 5818 5818 5818 5819 5819 5819 5819 5819 5819 5820 5820 5820 5820 5820 5820 5820 5820 5820 5821 5821 5821 5822 5822 5822 5823 5823 5824 5825 5826 5827 5827 5828 5829 5830 5830 5831 5831 5831 5832 5833 5833 5834 5834 5834 5834 5834 5834 5834 5834 5835 5835 5835 5835 5834 5834 5834 5834 5834 5834 5835 5835 5835 5835 5835 5835 5835 5835 5835 5835 5835 5835 5835
5815 5816 5816 5817 5817 5817 5817 5817 5817 5817 5817 5817 5816 5817 5817 5817 5818 5818 5818 5818 5818 5818 5818 5819 5819 5819 5819 5819 5819 5818 5818 5818 5819 5819 5820 5820 5820 5821 5821 5822 5823 5824 5824 5825 5826 5827 5827 5828 5828 5829 5830 5831 5831 5832 5832 5833 5833 5833 5833 5833 5833 5833 5833 5833 5833 5833 5833 5833 5832 5832 5832 5832 5832 5832 5833 5833 5832 5832 5832 5832 5832 5833 5833 5833 5833
5814 5814 5815 5816 5816 5816 5816 5816 5816 5816 5816 5816 5816 5816 5816 5816 5817 5817 5817 5817 5817 5817 5818 5818 5818 5818 5818 5817 5817 5816 5816 5816 5817 5817 5818 5818 5819 5819 5819 5820 5821 5821 5822 5823 5824 5824 5825 5826 5826 5827 5828 5829 5830 5831 5831 5831 5831 5831 5831 5831 5831 5831 5831 5831 5831 5831 5831 5831 5831 5831 5831 5830 5830 5830 5830 5830 5830 5830 5830 5830 5830 5830 5830 5830 5830
5812 5813 5814 5815 5815 5815 5815 5815 5816 5816 5816 5816 5815 5815 5815 5816 5816 5817 5817 5817 5816 5816 5816 5817 5817 5817 5816 5815 5815 5814 5815 5815 5815 5816 5816 5817 5817 5817 5817 5818 5819 5819 5820 5821 5822 5823 5823 5823 5824 5826 5826 5827 5828 5829 5829 5829 5829 5829 5829 5829 5829 5829 5829 5829 5829 5830 5830 5829 5829 5829 5829 5829 5828 5828 5828 5828 5828 5828 5828 5828 5828 5827 5827 5827 5827
5811 5812 5813 5814 5814 5814 5814 5815 5815 5815 5815 5815 5815 5815 5815 5815 5816 5816 5816 5816 5815 5815 5815 5816 5816 5815 5815 5814 5813 5813 5814 5814 5814 5815 5815 5816 5816 5816 5816 5816 5817 5817 5818 5819 5820 5821 5821 5822 5823 5824 5824 5825 5826 5826 5827 5827 5827 5827 5827 5827 5827 5827 5827 5828 5828 5827 5827 5827 5827 5827 5827 5826 5826 5826 5826 5826 5826 5826 5826 5826 5825 5825 5825 5825 5825
5810 5810 5811 5813 5813 5813 5814 5814 5815 5815 5815 5814 5814 5814 5814 5815 5815 5815 5815 5814 5814 5814 5814 5815 5815 5814 5813 5812 5812 5813 5813 5813 5813 5813 5814 5814 5815 5815 5815 5815 5815 5816 5817 5818 5819 5819 5819 5820 5821 5822 5822 5823 5824 5825 5825 5825 5825 5825 5825 5825 5826 5825 5825 5825 5825 5825 5825 5825 5825 5825 5825 5824 5824 5824 5823 5823 5823 5823 5823 5823 5823 5823 5822 5822 5822
5808 5809 5810 5811 5812 5812 5813 5813 5814 5814 5814 5814 5814 5814 5814 5814 5814 5814 5814 5813 5813 5813 5814 5814 5813 5813 5812 5812 5812 5812 5811 5811 5811 5812 5813 5813 5813 5814 5814 5814 5815 5815 5816 5817 5817 5818 5818 5819 5820 5820 5821 5822 5822 5823 5823 5823 5823 5823 5823 5824 5824 5823 5823 5823 5823 5823 5823 5823 5823 5823 5822 5822 5822 5821 5821 5821 5821 5821 5821 5821 5820 5820 5820 5820 5820
5807 5807 5809 5810 5811 5811 5812 5812 5813 5813 5813 5813 5813 5813 5814 5813 5813 5813 5813 5812 5812 5812 5813 5813 5812 5811 5811 5811 5811 5811 5810 5810 5811 5811 5812 5812 5812 5813 5813 5814 5814 5814 5815 5816 5816 5816 5817 5818 5818 5819 5820 5820 5821 5821 5821 5822 5822 5822 5822 5822 5822 5822 5822 5822 5822 5822 5822 5821 5821 5821 5820 5820 5820 5819 5819 5819 5819 5819 5819 5819 5818 5818 5818 5818 5818
5806 5806 5807 5809 5810 5810 5810 5811 5811 5812 5813 5813 5812 5812 5812 5812 5812 5812 5812 5811 5811 5811 5812 5812 5811 5811 5810 5810 5810 5810 5810 5810 5811 5811 5811 5811 5812 5812 5813 5813 5813 5814 5814 5815 5815 5815 5816 5816 5817 5818 5819 5819 5819 5820 5820 5820 5820 5820 5820 5820 5820 5820 5820 5821 5821 5821 5820 5820 5819 5819 5819 5818 5818 5818 5818 5817 5817 5817 5817 5817 5816 5816 5816 5816 5815
5805 5805 5806 5807 5808 5809 5809 5810 5810 5811 5812 5812 5811 5811 5811 5811 5811 5811 5811 5810 5810 5810 5811 5811 5811 5810 5809 5809 5809 5809 5810 5811 5810 5810 5810 5811 5812 5812 5812 5813 5813 5813 5814 5814 5814 5814 5815 5815 5815 5817 5817 5818 5818 5818 5818 5818 5818 5819 5819 5819 5819 5819 5819 5819 5819 5819 5819 5818 5818 5818 5817 5817 5817 5816 5816 5816 5816 5816 5816 5815 5815 5815 5814 5814 5814
5804 5804 5805 5806 5807 5807 5808 5809 5809 5810 5810 5810 5810 5810 5810 5810 5810 5810 5809 5809 5809 5809 5810 5810 5810 5809 5809 5809 5809 5808 5809 5810 5810 5810 5811 5811 5812 5812 5812 5812 5813 5813 5813 5813 5813 5813 5814 5814 5814 5815 5816 5816 5817 5817 5817 5817 5817 5817 5817 5818 5818 5818 5818 5818 5818 5818 5818 5817 5817 5817 5816 5816 5816 5815 5815 5815 5815 5814 5814 5814 5813 5813 5813 5813 5812
5802 5803 5803 5804 5805 5806 5806 5807 5808 5808 5809 5809 5809 5809 5809 5809 5809 5809 5808 5808 5808 5808 5809 5809 5809 5809 5809 5809 5808 5808 5809 5810 5809 5810 5811 5811 5811 5812 5812 5812 5812 5813 5813 5813 5813 5813 5813 5813 5814 5814 5814 5815 5815 5815 5815 5815 5815 5816 5816 5817 5817 5817 5817 5817 5817 5817 5817 5817 5816 5816 5816 5815 5815 5815 5814 5814 5813 5813 5813 5812 5812 5812 5811 5811 5811
5801 5802 5802 5803 5804 5804 5805 5805 5806 5807 5807 5807 5807 5808 5808 5808 5808 5808 5808 5807 5807 5807 5808 5808 5808 5808 5808 5808 5808 5808 5809 5809 5809 5809 5811 5811 5811 5811 5812 5812 5812 5812 5813 5813 5813 5813 5813 5813 5813 5813 5813 5813 5814 5814 5814 5815 5815 5815 5815 5815 5816 5816 5816 5816 5816 5816 5816 5816 5816 5816 5815 5815 5814 5814 5813 5813 5812 5812 5811 5811 5811 5810 5810 5810 5809
5800 5801 5801 5802 5802 5803 5803 5804 5804 5805 5805 5806 5806 5806 5806 5807 5807 5807 5807 5807 5806 5806 5806 5807 5807 5807 5807 5807 5807 5808 5808 5809 5808 5809 5810 5810 5811 5811 5811 5811 5812 5812 5812 5812 5812 5812 5812 5813 5812 5812 5812 5812 5813 5813 5813 5814 5814 5814 5814 5814 5814 5815 5815 5815 5815 5815 5815 5815 5815 5814 5814 5813 5813 5812 5812 5811 5811 5810 5809 5809 5809 5808 5808 5808 5808
5799 5799 5800 5801 5801 5802 5802 5802 5802 5803 5804 5804 5804 5805 5805 5805 5806 5806 5806 5806 5806 5806 5806 5805 5805 5806 5805 5805 5806 5806 5807 5808 5808 5808 5809 5809 5810 5810 5810 5811 5811 5811 5812 5811 5812 5812 5812 5812 5812 5812 5812 5812 5812 5812 5813 5813 5813 5813 5813 5813 5813 5813 5813 5814 5814 5814 5814 5814 5813 5813 5813 5812 5812 5811 5810 5810 5809 5808 5807 5807 5807 5806 5806 5806 5805
5798 5798 5799 5799 5800 5800 5800 5800 5801 5801 5802 5802 5803 5803 5803 5804 5804 5805 5805 5805 5805 5805 5805 5805 5805 5805 5804 5804 5804 5805 5806 5807 5807 5808 5808 5809 5809 5810 5810 5810 5811 5811 5810 5811 5811 5811 5811 5811 5811 5811 5811 5811 5811 5812 5812 5812 5812 5812 5812 5812 5812 5812 5812 5812 5812 5812 5812 5812 5812 5811 5811 5810 5810 5809 5809 5808 5807 5806 5806 5805 5804 5804 5804 5803 5803
5796 5797 5797 5798 5798 5798 5799 5799 5799 5800 5800 5801 5801 5802 5802 5802 5803 5803 5804 5804 5804 5804 5804 5804 5804 5804 5803 5803 5803 5804 5804 5805 5806 5807 5807 5808 5808 5808 5809 5809 5809 5809 5809 5809 5810 5810 5810 5810 5810 5810 5810 5810 5810 5811 5811 5811 5811 5811 5811 5811 5811 5810 5810 5810 5809 5809 5809 5809 5809 5809 5808 5808 5808 5807 5807 5806 5805 5804 5804 5803 5802 5802 5801 5801 5801
5795 5795 5796 5796 5796 5797 5797 5797 5798 5798 5799 5799 5800 5800 5801 5801 5801 5802 5803 5803 5803 5803 5803 5803 5803 5803 5803 5803 5803 5803 5804 5804 5805 5806 5806 5807 5807 5807 5807 5808 5808 5808 5808 5808 5808 5808 5808 5808 5808 5808 5809 5809 5809 5809 5810 5810 5810 5809 5809 5809 5808 5808 5808 5807 5807 5807 5806 5806 5806 5806 5806 5806 5805 5805 5805 5804 5803 5802 5802 5801 5800 5800 5799 5799 5798
5793 5793 5794 5794 5795 5795 5796 5796 5797 5797 5797 5798 5799 5799 5800 5800 5800 5800 5801 5801 5802 5802 5802 5802 5802 5802 5802 5802 5802 5803 5803 5803 5804 5804 5805 5805 5805 5806 5806 5806 5806 5806 5806 5807 5807 5807 5807 5807 5807 5807 5808 5808 5808 5808 5808 5808 5808 5808 5807 5807 5807 5806 5806 5806 5805 5805 5804 5804 5804 5803 5803 5803 5803 5802 5802 5802 5801 5801 5800 5799 5799 5798 5798 5797 5797
5791 5792 5792 5793 5793 5794 5794 5795 5795 5796 5796 5797 5798 5798 5799 5799 5799 5799 5799 5800 5800 5800 5801 5801 5801 5801 5801 5801 5802 5802 5802 5802 5802 5803 5804 5804 5804 5804 5804 5805 5805 5805 5805 5805 5806 5806 5806 5806 5806 5806 5807 5807 5807 5807 5807 5806 5806 5806 5806 5806 5805 5805 5804 5804 5803 5803 5803 5802 5802 5801 5801 5801 5800 5800 5800 5800 5799 5799 5799 5798 5797 5797 5796 5796 5795
5789 5790 5791 5791 5792 5793 5793 5794 5794 5795 5795 5796 5796 5797 5798 5798 5797 5797 5798 5798 5799 5799 5799 5799 5799 5799 5799 5800 5800 5801 5800 5800 5801 5801 5802 5802 5802 5803 5803 5803 5803 5803 5803 5804 5804 5805 5805 5805 5805 5805 5805 5805 5805 5805 5805 5805 5804 5804 5804 5804 5803 5803 5802 5802 5802 5801 5801 5800 5800 5799 5799 5799 5798 5798 5798 5798 5798 5797 5797 5797 5796 5795 5795 5794 5794
5787 5788 5789 5790 5791 5791 5792 5793 5793 5793 5794 5795 5795 5796 5796 5796 5796 5796 5796 5796 5797 5797 5797 5797 5797 5798 5798 5798 5799 5799 5799 5799 5799 5800 5800 5801 5801 5801 5801 5801 5801 5801 5801 5802 5802 5803 5803 5803 5803 5803 5803 5803 5803 5802 5802 5802 5802 5802 5802 5801 5801 5801 5800 5800 5800 5800 5799 5799 5798 5798 5797 5797 5797 5796 5796 5796 5796 5796 5796 5795 5795 5794 5794 5793 5793
5785 5786 5787 5788 5789 5790 5790 5791 5792 5792 5793 5794 5794 5795 5795 5795 5794 5794 5794 5795 5795 5796 5796 5796 5796 5796 5796 5796 5797 5797 5798 5798 5798 5798 5798 5799 5799 5799 5799 5799 5799 5799 5799 5800 5800 5800 5800 5801 5801 5801 5801 5801 5800 5800 5800 5800 5800 5800 5799 5799 5799 5798 5798 5798 5798 5798 5798 5797 5797 5796 5796 5795 5795 5795 5794 5794 5794 5794 5794 5794 5794 5793 5793 5792 5792
5783 5783 5784 5786 5787 5788 5789 5790 5790 5791 5791 5792 5793 5793 5793 5793 5793 5793 5793 5793 5794 5794 5795 5795 5795 5795 5795 5795 5795 5795 5796 5796 5796 5796 5797 5797 5797 5798 5798 5798 5798 5797 5797 5798 5798 5798 5798 5799 5799 5799 5799 5799 5798 5798 5798 5798 5798 5798 5797 5797 5797 5797 5797 5797 5796 5796 5796 5796 5795 5794 5794 5794 5793 5793 5793 5793 5792 5792 5792 5792 5792 5792 5791 5791 5790
5781 5781 5782 5784 5786 5787 5788 5788 5788 5789 5790 5791 5792 5792 5792 5792 5792 5792 5792 5792 5793 5793 5793 5794 5793 5793 5793 5794 5794 5794 5794 5794 5794 5795 5795 5796 5796 5796 5796 5796 5796 5796 5796 5796 5796 5796 5797 5797 5797 5797 5797 5796 5796 5796 5796 5796 5796 5796 5796 5795 5795 5795 5795 5795 5795 5794 5794 5794 5793 5792 5792 5792 5791 5791 5791 5791 5791 5790 5790 5790 5790 5790 5789 5789 5788
5779 5779 5780 5782 5784 5786 5786 5787 5787 5787 5788 5789 5790 5790 5791 5791 5791 5791 5791 5791 5792 5792 5792 5792 5792 5792 5792 5792 5792 5792 5793 5793 5793 5794 5794 5794 5795 5795 5795 5795 5795 5795 5795 5795 5795 5795 5795 5795 5795 5795 5794 5794 5794 5794 5794 5794 5794 5794 5794 5794 5793 5793 5793 5793 5793 5792 5792 5792 5791 5790 5790 5790 5790 5789 5789 5789 5788 5788 5788 5788 5788 5788 5787 5787 5786
5777 5777 5778 5780 5782 5783 5784 5785 5785 5785 5786 5787 5788 5789 5789 5789 5789 5789 5790 5790 5790 5790 5790 5790 5790 5790 5791 5791 5791 5791 5791 5792 5792 5792 5793 5793 5793 5793 5793 5793 5793 5793 5793 5793 5793 5793 5793 5793 5793 5793 5792 5792 5792 5792 5792 5792 5792 5792 5792 5792 5792 5791 5791 5791 5791 5791 5790 5789 5789 5788 5788 5788 5787 5787 5787 5786 5786 5786 5786 5785 5785 5785 5785 5785 5784
5775 5776 5776 5777 5779 5781 5782 5783 5783 5783 5784 5785 5786 5787 5788 5788 5788 5788 5788 5788 5789 5789 5789 5789 5789 5789 5789 5790 5790 5790 5790 5790 5791 5791 5791 5791 5792 5792 5792 5792 5792 5792 5792 5792 5792 5791 5791 5791 5791 5791 5791 5791 5790 5791 5791 5791 5791 5791 5790 5790 5790 5790 5789 5789 5789 5788 5788 5787 5786 5786 5786 5785 5785 5785 5784 5784 5784 5783 5783 5783 5783 5783 5782 5782 5782
5773 5774 5774 5775 5777 5779 5780 5781 5781 5781 5782 5783 5784 5785 5786 5787 5787 5787 5787 5787 5787 5787 5787 5787 5787 5787 5788 5788 5789 5789 5789 5789 5789 5789 5789 5790 5790 5790 5790 5791 5790 5790 5790 5790 5790 5790 5790 5789 5789 5789 5789 5789 5789 5789 5789 5789 5789 5789 5788 5788 5788 5787 5787 5787 5786 5786 5785 5784 5784 5784 5783 5783 5783 5782 5782 5782 5781 5781 5781 5781 5780 5780 5780 5780 5780
5770 5771 5772 5773 5774 5776 5778 5779 5779 5780 5780 5781 5782 5783 5784 5785 5785 5785 5785 5786 5786 5786 5786 5786 5786 5786 5786 5787 5787 5788 5788 5788 5788 5788 5788 5788 5789 5789 5789 5789 5789 5788 5788 5788 5788 5788 5788 5787 5787 5788 5787 5787 5787 5787 5787 5787 5787 5786 5786 5786 5785 5785 5785 5784 5784 5783 5782 5782 5782 5781 5781 5781 5780 5780 5780 5779 5779 5779 5778 5778 5778 5778 5777 5777 5777
5768 5769 5770 5771 5772 5774 5775 5776 5777 5777 5778 5779 5780 5781 5782 5782 5783 5783 5784 5784 5784 5784 5784 5785 5785 5785 5785 5785 5786 5786 5786 5786 5787 5787 5787 5787 5787 5787 5787 5787 5786 5786 5786 5786 5786 5786 5786 5786 5786 5786 5785 5785 5785 5785 5785 5785 5784 5784 5783 5783 5783 5782 5782 5781 5781 5781 5780 5780 5780 5779 5779 5778 5778 5777 5777 5777 5776 5776 5775 5775 5775 5774 5774 5774 5774
5767 5767 5768 5769 5770 5771 5773 5773 5774 5775 5776 5777 5777 5779 5779 5780 5781 5781 5781 5782 5782 5782 5783 5783 5783 5783 5783 5784 5784 5784 5784 5785 5785 5785 5784 5785 5784 5784 5784 5784 5784 5784 5784 5784 5784 5784 5784 5784 5783 5783 5783 5783 5783 5783 5782 5782 5782 5781 5781 5781 5780 5780 5780 5779 5779 5778 5778 5778 5777 5777 5776 5776 5775 5775 5774 5774 5773 5773 5772 5772 5771 5771 5771 5771 5771
5765 5766 5766 5767 5768 5769 5770 5771 5772 5773 5774 5774 5775 5776 5777 5778 5779 5779 5780 5780 5780 5780 5781 5781 5781 5781 5781 5782 5782 5782 5782 5782 5782 5782 5782 5782 5782 5782 5782 5782 5782 5782 5782 5782 5782 5782 5782 5782 5781 5781 5781 5781 5781 5780 5780 5780 5780 5779 5779 5778 5778 5778 5777 5777 5777 5776 5776 5775 5775 5774 5774 5773 5772 5772 5771 5771 5770 5769 5769 5768 5768 5768 5767 5767 5767
5763 5764 5765 5765 5766 5767 5768 5769 5770 5770 5771 5772 5773 5774 5775 5776 5777 5777 5778 5778 5778 5778 5779 5779 5779 5779 5780 5780 5780 5780 5780 5780 5780 5780 5780 5780 5780 5780 5780 5779 5779 5779 5779 5780 5780 5780 5780 5780 5779 5779 5779 5779 5779 5778 5778 5778 5777 5777 5776 5776 5776 5775 5775 5774 5774 5773 5773 5772 5771 5771 5770 5770 5769 5769 5768 5767 5767 5766 5766 5765 5764 5764 5763 5763 5762
5761 5761 5762 5763 5764 5765 5766 5767 5767 5768 5769 5770 5770 5771 5772 5773 5774 5775 5775 5776 5776 5776 5776 5777 5777 5777 5778 5778 5778 5778 5778 5778 5778 5778 5778 5778 5777 5777 5777 5777 5777 5777 5777 5777 5777 5777 5777 5777 5777 5777 5777 5776 5776 5776 5775 5775 5774 5774 5774 5773 5773 5772 5772 5771 5771 5770 5770 5769 5768 5768 5767 5766 5766 5765 5764 5764 5763 5762 5762 5761 5760 5760 5759 5758 5758
5759 5759 5760 5760 5761 5762 5763 5764 5764 5765 5766 5767 5767 5768 5769 5770 5771 5772 5773 5773 5773 5773 5774 5774 5774 5775 5775 5775 5776 5776 5776 5776 5776 5776 5775 5775 5775 5775 5775 5775 5775 5775 5775 5775 5775 5775 5775 5774 5774 5774 5774 5773 5773 5772 5772 5772 5771 5771 5770 5770 5769 5769 5768 5768 5767 5767 5766 5766 5765 5765 5764 5763 5762 5761 5760 5760 5759 5758 5758 5757 5756 5755 5754 5754 5753
5756 5757 5757 5758 5759 5760 5760 5761 5761 5762 5763 5764 5764 5765 5766 5767 5768 5769 5770 5770 5770 5771 5771 5771 5771 5771 5772 5772 5773 5773 5773 5773 5773 5773 5773 5772 5772 5772 5772 5772 5772 5772 5772 5772 5772 5772 5771 5771 5771 5770 5770 5770 5769 5769 5768 5768 5767 5767 5767 5767 5766 5766 5765 5765 5764 5763 5763 5762 5762 5761 5761 5760 5759 5758 5757 5756 5755 5754 5753 5753 5752 5751 5750 5749 5748
5753 5754 5754 5755 5756 5757 5758 5758 5759 5759 5760 5761 5762 5763 5764 5765 5766 5766 5767 5767 5767 5768 5768 5768 5768 5769 5769 5769 5769 5770 5770 5770 5770 5770 5769 5769 5769 5769 5769 5770 5770 5769 5769 5769 5768 5768 5768 5767 5767 5766 5766 5765 5765 5764 5764 5764 5764 5763 5763 5763 5763 5763 5762 5762 5761 5760 5759 5759 5758 5758 5757 5756 5755 5754 5753 5751 5750 5749 5749 5748 5748 5747 5746 5745 5744
5750 5751 5752 5753 5753 5754 5755 5756 5756 5757 5757 5758 5759 5760 5761 5762 5763 5763 5763 5764 5764 5765 5765 5766 5766 5766 5767 5767 5767 5767 5767 5767 5767 5767 5766 5766 5766 5766 5767 5767 5767 5767 5766 5766 5765 5765 5764 5763 5763 5763 5762 5762 5761 5760 5760 5760 5760 5760 5760 5760 5759 5759 5758 5758 5757 5757 5756 5755 5754 5753 5752 5751 5750 5749 5748 5746 5745 5744 5744 5743 5743 5742 5741 5740 5739
5747 5748 5748 5750 5751 5752 5752 5753 5753 5754 5755 5755 5756 5757 5758 5759 5759 5759 5760 5760 5761 5761 5762 5762 5763 5763 5764 5764 5764 5764 5764 5764 5764 5764 5764 5763 5763 5764 5764 5764 5764 5764 5763 5762 5762 5761 5761 5760 5760 5759 5759 5759 5758 5757 5757 5756 5756 5756 5756 5756 5756 5755 5754 5753 5753 5753 5752 5750 5749 5749 5748 5746 5745 5744 5742 5741 5740 5739 5739 5738 5738 5737 5736 5735 5733
5744 5745 5746 5747 5748 5749 5749 5750 5750 5751 5751 5752 5753 5754 5755 5755 5756 5756 5756 5756 5757 5757 5757 5758 5759 5759 5760 5760 5760 5760 5760 5760 5760 5760 5760 5760 5760 5760 5760 5760 5760 5760 5759 5758 5758 5757 5757 5757 5756 5756 5756 5755 5754 5754 5753 5753 5752 5752 5752 5752 5751 5750 5750 5749 5748 5748 5747 5746 5745 5744 5743 5741 5740 5738 5737 5736 5735 5734 5733 5733 5732 5731 5730 5729 5728
5741 5742 5743 5744 5745 5746 5747 5747 5748 5748 5748 5749 5750 5750 5751 5752 5752 5752 5753 5753 5753 5753 5753 5753 5754 5754 5755 5755 5755 5755 5756 5755 5755 5755 5755 5755 5755 5755 5755 5755 5755 5755 5754 5754 5754 5753 5753 5753 5753 5752 5752 5751 5750 5750 5749 5749 5749 5748 5748 5747 5746 5746 5745 5745 5744 5743 5742 5741 5740 5739 5738 5736 5735 5734 5733 5732 5730 5729 5728 5728 5727 5726 5725 5724 5723
5739 5739 5740 5741 5742 5743 5744 5745 5745 5745 5746 5746 5746 5747 5748 5748 5749 5749 5749 5749 5749 5749 5749 5749 5750 5750 5750 5750 5750 5750 5751 5751 5750 5750 5750 5750 5750 5751 5751 5751 5751 5750 5750 5750 5750 5749 5749 5748 5748 5748 5747 5747 5746 5745 5745 5744 5744 5744 5743 5742 5742 5741 5740 5740 5739 5738 5737 5736 5735 5733 5732 5731 5730 5728 5728 5727 5725 5724 5724 5723 5722 5721 5720 5719 5718
5736 5736 5737 5738 5739 5740 5741 5742 5742 5742 5743 5743 5744 5744 5744 5745 5745 5746 5746 5746 5746 5746 5746 5746 5746 5746 5746 5746 5746 5746 5746 5745 5745 5745 5745 5745 5745 5746 5746 5746 5746 5745 5745 5745 5745 5744 5744 5743 5743 5742 5742 5742 5741 5741 5740 5740 5739 5739 5738 5737 5737 5736 5735 5735 5733 5732 5731 5730 5729 5728 5727 5726 5725 5723 5722 5721 5719 5718 5718 5717 5716 5715 5714 5713 5712
5733 5733 5734 5735 5736 5737 5737 5738 5739 5739 5740 5740 5740 5741 5741 5741 5741 5742 5742 5742 5742 5742 5742 5742 5742 5742 5742 5742 5742 5742 5741 5741 5740 5740 5740 5740 5740 5740 5740 5740 5740 5740 5739 5739 5738 5738 5738 5737 5737 5737 5737 5736 5736 5735 5735 5734 5734 5733 5733 5732 5731 5731 5730 5728 5727 5726 5725 5724 5723 5722 5721 5721 5720 5718 5716 5715 5714 5712 5711 5711 5710 5709 5707 5706 5704
5730 5730 5731 5731 5732 5733 5734 5734 5735 5735 5736 5736 5737 5737 5737 5737 5737 5737 5738 5738 5737 5737 5737 5737 5737 5737 5737 5738 5737 5737 5737 5736 5735 5735 5735 5735 5735 5735 5735 5735 5734 5734 5733 5733 5732 5732 5731 5731 5731 5731 5731 5730 5729 5729 5729 5728 5728 5727 5726 5726 5726 5725 5723 5722 5721 5719 5718 5718 5717 5716 5715 5714 5714 5712 5710 5709 5708 5706 5704 5703 5702 5702 5700 5698 5697
5726 5727 5727 5728 5728 5729 5730 5730 5730 5731 5731 5732 5732 5733 5733 5733 5733 5733 5733 5733 5733 5733 5732 5732 5732 5732 5732 5732 5732 5731 5731 5730 5729 5729 5730 5730 5730 5729 5729 5728 5728 5728 5727 5726 5726 5725 5725 5724 5724 5724 5724 5723 5723 5722 5722 5722 5721 5720 5720 5719 5719 5718 5717 5716 5715 5713 5712 5712 5711 5709 5708 5708 5707 5705 5703 5702 5701 5699 5697 5695 5695 5694 5693 5692 5690
5722 5723 5723 5724 5724 5725 5725 5726 5726 5727 5727 5727 5728 5728 5728 5728 5729 5729 5729 5729 5728 5728 5728 5727 5727 5727 5727 5726 5726 5725 5725 5723 5723 5723 5723 5723 5723 5722 5721 5721 5721 5721 5720 5719 5719 5719 5718 5718 5717 5717 5716 5715 5715 5714 5714 5714 5714 5713 5713 5713 5712 5711 5710 5709 5708 5707 5706 5706 5705 5703 5701 5701 5699 5698 5696 5695 5693 5692 5690 5689 5688 5688 5687 5685 5684